Location: ????????
(60.4333°N, 46.4710°E)
Time: 03:50:19
(UTC+00:00)

NOSS 3-3 (C) - Pass Details

Date: 25 November 2020
Orbit: 820 x 1392 km, 63.4° (Epoch: 14 January)

Event Time Altitude Azimuth Distance (km) Brightness Sun altitude
Rises 14:39:31 0° 291° (WNW) 3,736 8.1 -17.9°
Reaches altitude 10° 14:41:58 10° 292° (WNW) 2,860 7.3 -18.2°
Maximum altitude 14:48:50 83° 21° (NNE) 1,174 4.3 -19.0°
Enters shadow 14:53:38 26° 108° (ESE) 2,218 5.3 -19.6°
